This is the latest recevied weather packets stored in our database for station/object K5IDL. If no packets are shown the sender has not sent any weather packets the latest 10 day(s).
| Time | Temp. | Humidity | Pressure | Rain* | Wind** | Luminosity | Snow |
|---|---|---|---|---|---|---|---|
| 1777921338 | 27.78° C | 50% | 1011.1 hPa | 0 mm | - | 722 W/m² | - |
| 1777921034 | 27.78° C | 49% | 1011.1 hPa | 0 mm | - | 735 W/m² | - |
| 1777920731 | 27.22° C | 50% | 1011.3 hPa | 0 mm | - | 673 W/m² | - |
| 1777920427 | 27.78° C | 48% | 1010.9 hPa | 0 mm | - | 617 W/m² | - |
| 1777920123 | 27.22° C | 49% | 1011.2 hPa | 0 mm | - | 738 W/m² | - |
| 1777919819 | 27.22° C | 49% | 1011.3 hPa | 0 mm | - | 637 W/m² | - |
| 1777919516 | 27.22° C | 49% | 1011.1 hPa | 0 mm | - | 495 W/m² | - |
| 1777919214 | 27.22° C | 48% | 1011.4 hPa | 0 mm | - | 623 W/m² | - |
| 1777918912 | 27.22° C | 48% | 1011.5 hPa | 0 mm | - | 465 W/m² | - |
| 1777918609 | 26.67° C | 47% | 1011.6 hPa | 0 mm | - | 568 W/m² | - |
| 1777918307 | 26.11° C | 48% | 1011.6 hPa | 0 mm | - | 336 W/m² | - |
| 1777918005 | 27.22° C | 45% | 1011.6 hPa | 0 mm | - | 385 W/m² | - |
| 1777917704 | 27.78° C | 47% | 1011.7 hPa | 0 mm | - | 580 W/m² | - |
| 1777917400 | 27.22° C | 46% | 1011.9 hPa | 0 mm | - | 623 W/m² | - |
| 1777917097 | 27.22° C | 47% | 1012 hPa | 0 mm | - | 599 W/m² | - |
| 1777916796 | 26.67° C | 46% | 1012 hPa | 0 mm | - | 753 W/m² | - |
| 1777916491 | 26.67° C | 46% | 1012.2 hPa | 0 mm | - | 690 W/m² | - |
| 1777916189 | 26.67° C | 45% | 1012.3 hPa | 0 mm | - | 586 W/m² | - |
| 1777915886 | 26.67° C | 46% | 1012.4 hPa | 0 mm | - | 719 W/m² | - |
| 1777915582 | 26.67° C | 45% | 1012.3 hPa | 0 mm | - | 660 W/m² | - |
| 1777915279 | 26.67° C | 46% | 1012.4 hPa | 0 mm | - | 556 W/m² | - |
| 1777914976 | 25.56° C | 47% | 1012.6 hPa | 0 mm | - | 523 W/m² | - |
| 1777914673 | 25.56° C | 47% | 1012.6 hPa | 0 mm | - | 532 W/m² | - |
| 1777914369 | 25.56° C | 46% | 1012.9 hPa | 0 mm | - | 514 W/m² | - |
| 1777914067 | 25.56° C | 45% | 1012.9 hPa | 0 mm | - | 749 W/m² | - |
* Rain latest hour (hover to see other rain measurements)
** Current wind speed in m/s (hover to see current wind gust speed)